Location: Astronomy Club of Akron Observatory
(40.9700°N, 81.5606°W)
Time: 15:46:25
(UTC-04:00)

ISS - Pass Details

Date: 20 July 2018
Orbit: 402 x 408 km, 51.6° (Epoch: 17 July)

Event Time Altitude Azimuth Distance (km) Brightness Sun altitude
Rises 22:17:54 0° 233° (SW) 2,307 0.1 -13.7°
Reaches altitude 10° 22:19:58 10° 234° (SW) 1,453 -0.9 -14.0°
Maximum altitude 22:23:14 88° 323° (NW) 408 -3.9 -14.4°
Drops below altitude 10° 22:26:31 10° 54° (NE) 1,464 -1.1 -14.9°
Sets 22:28:36 0° 54° (NE) 2,327 -0.1 -15.2°
